AirNav   Air Wisconsin Airman Trainee
 
 1196 users online  

77F Winters Municipal Airport
Winters, Texas, USA

GOING TO WINTERS?


FAA INFORMATION EFFECTIVE 28 FEBRUARY 2019

Location

FAA Identifier: 77F
Lat/Long: 31-56-49.8991N / 099-59-09.0602W
31-56.831652N / 099-59.151003W
31.9471942 / -99.9858501
(estimated)
Elevation: 1871 ft. / 570.3 m (surveyed)
Variation: 08E (1980)
From city: 2 miles SW of WINTERS, TX
Time zone: UTC -6 (UTC -5 during Daylight Saving Time)
Zip code: 79567

Airport Operations

Airport use: Open to the public
Control tower: no
ARTCC: FORT WORTH CENTER
FSS: SAN ANGELO FLIGHT SERVICE STATION
NOTAMs facility: SJT (NOTAM-D service available)
Attendance: UNATNDD
Wind indicator: lighted
Segmented circle: yes
Lights: SS-SR
Beacon: white-green (lighted land airport)
Operates sunset to sunrise.

Airport Communications

CTAF: 122.9
ABILENE APPROACH: 127.2 [OPR 1200-0200Z++ MON-FRI; 1800-2300Z++ SUN; CLSD SAT AND HOL, OT CTC FORT WORTH CENTER 133.5 350.35.]
ABILENE DEPARTURE: 127.2 [OPR 1200-0200Z++ MON-FRI; 1800-2300Z++ SUN; CLSD SAT AND HOL, OT CTC FORT WORTH CENTER 133.5 350.35.]

Nearby radio navigation aids

VOR radial/distance  VOR name  Freq  Var
TQAr196/19.3TUSCOLA VOR/DME111.6010E
ABIr181/32.6ABILENE VORTAC113.7010E

 
NDB name  Hdg/Dist  Freq  Var  ID
SWEETWATER134/39.327508ESWW ... .-- .--

Airport Services

Parking: tiedowns

Runway Information

Runway 17/35

Dimensions: 3204 x 50 ft. / 977 x 15 m
Surface: asphalt, in fair condition
Weight bearing capacity: 
Single wheel: 12.0
Runway edge lights: low intensity
Runway edge markings: PAINT MARKINGS FADED.
RUNWAY 17  RUNWAY 35
Latitude: 31-57.095873N31-56.567430N
Longitude: 099-59.148910W099-59.153095W
Elevation: 1865.5 ft.1871.0 ft.
Gradient: 0.2%0.2%
Traffic pattern: leftleft
Runway heading: 172 magnetic, 180 true352 magnetic, 000 true
Markings: nonprecision, in poor conditionnonprecision, in poor condition
Touchdown point: yes, no lightsyes, no lights
Obstructions: 5 ft. fence, 200 ft. from runway, 163 ft. right of centerline
+5 FT FENCE FM THLD TO 200 FT FM THLD AND 243 FT TO 163 FT RIGHT.
4 ft. fence, 200 ft. from runway, 180 ft. left of centerline
+4 FT FENCE 200 FT LEFT OF CNTRLN AT THLD; SCATTERED 10-20 + FT TREES 0 - 200 FT FM THLD 180 FT LEFT

Airport Ownership and Management from official FAA records

Ownership: Publicly-owned
Owner: CITY OF WINTERS
310 S MAIN
WINTERS, TX 79567
Phone 325-754-4424
Manager: STEVE BALLARD
P.O. BOX 63
WINTERS, TX 79567
Phone (325) 365-6333

Airport Operational Statistics

Aircraft based on the field: 7
Single engine airplanes: 7
    
Aircraft operations: avg 40/week *
67% local general aviation
33% transient general aviation
* for 12-month period ending 27 February 2018

Additional Remarks

4 FT PROPERTY LINE FENCE 163-200 FT WEST OF RY.
SOUTH PARL TXY OTS.

Instrument Procedures

NOTE: All procedures below are presented as PDF files. If you need a reader for these files, you should download the free Adobe Reader.

NOT FOR NAVIGATION. Please procure official charts for flight.
FAA instrument procedures published for use from 28 February 2019 at 0901Z to 28 March 2019 at 0900Z.

 
IAPs - Instrument Approach Procedures
RNAV (GPS) RWY 17   download (144KB)
RNAV (GPS) RWY 35   download (163KB)
NOTE: Special Take-Off Minimums/Departure Procedures apply   download (107KB)

Other nearby airports with instrument procedures:

E30 - Bruce Field Airport (16 nm S)
KDYS - Dyess Air Force Base (29 nm N)
KCOM - Coleman Municipal Airport (30 nm E)
KABI - Abilene Regional Airport (32 nm NE)
KSWW - Avenger Field Airport (40 nm NW)
 
Loc | Ops | Rwys | IFR | FBO | Links
Com | Nav | Svcs | Stats | Notes
Area around 77F (Winters Municipal Airport)
 
Road maps at: MapQuest Bing Google
 
Aerial photo
WARNING: Photo may not be current or correct
Aerial photo of 77F (Winters Municipal Airport)
Taken in December 2004

Do you have a better or more recent aerial photo of Winters Municipal Airport that you would like to share? If so, please send us your photo.

 
Sectional chart

 
Airport distance calculator
Flying to Winters Municipal Airport? Find the distance to fly.

From to 77F

Sunrise and sunset
Times for 21-Mar-2019
 Local
(UTC-5)
 Zulu
(UTC)
Morning civil twilight07:1912:19
Sunrise07:4312:43
Sunset19:5100:51
Evening civil twilight20:1501:15

Current date and time
Zulu (UTC)  21-Mar-2019 21:28:24
Local (UTC-5)  21-Mar-2019 16:28:24
 
METAR
KDYS 
29nm N 
211356Z AUTO 19003KT 10SM CLR 10/04 A3027 RMK AO2 SLP244 T01020037 $
KCOM 
30nm E 
212115Z AUTO 00000KT 10SM CLR 23/M04 A3017 RMK AO2 T02261038
KABI 
32nm NE 
212052Z 22005KT 10SM CLR 22/00 A3017 RMK AO2 SLP206 T02170000 58028
KSWW 
40nm NW 
212115Z AUTO 13008KT 10SM CLR 21/M05 A3019 RMK AO2 T02141051
KSJT 
44nm SW 
212051Z 00000KT 10SM BKN055 22/08 A3016 RMK AO2 SLP208 T02220083 56030
TAF
KDYS 
29nm N 
210800Z 2108/2214 VRB06KT 9999 SKC QNH3014INS BECMG 2122/2123 15006KT 9999 SCT150 QNH3012INS BECMG 2205/2206 15006KT 9999 SCT040 BKN150 QNH3009INS TX22/2122Z TN03/2111Z
KABI 
32nm NE 
211720Z 2118/2218 VRB05KT P6SM FEW250 FM221400 18010KT P6SM FEW250 FM221600 18012G18KT P6SM FEW250
NOTAMs
Click for the latest NOTAMs
NOTAMs are issued by the DoD/FAA and will open in a separate window not controlled by AirNav.

 

 
 

Would you like to see your business listed on this page?

 If your business provides an interesting product or service to pilots, flight crews, aircraft, or users of the Winters Municipal Airport, you should consider listing it here.  To start the listing process, click on the button below
 
Add a business
 

Other Pages about Winters Municipal Airport

Update a link
 
Copyright © AirNav, LLC. All rights reserved. Privacy Policy  Contact